Flag for Canada Weather past 2 weeks in St. Albert, Alberta, Canada

Now
59 °F

Clear.


Feels Like: 58 °F
Forecast: 47 / 80 °F
Wind: 7 mph from South

Location: Edmonton Municipal

Current Time: Sep 22, 2014 at 2:57:48 AM

Latest Report: Sep 22, 2014 at 2:00 AM


Visibility: 9 mi

Pressure: 29.73 "Hg

Humidity: 63%

Dew point: 46 °F

Location of St. AlbertLocation

Historic Weather in St. Albert — Graph

°F

St. Albert temperature yesterday

Maximum temperature yesterday: 82 °F (at 3:00 PM)
Minimum temperature yesterday: 48 °F (at 7:00 AM)
Average temperature yesterday: 65 °F

Past Weeks' High & Low Weather Summary

 TemperatureHumidityPressure
High82 °F (Sep 21, 3:00 PM)100% (Sep 7, 6:50 PM)30.66 "Hg (Sep 7, 6:50 PM)
Low28 °F (Sep 11, 4:00 AM)28% (Sep 21, 2:00 PM)29.55 "Hg (Sep 18, 5:00 AM)
Average51 °F68%30.05 "Hg
* Reported Sep 7 2:00 AM — Sep 22 2:00 AM, St. Albert, Weather by CustomWeather, © 2014

Note: Actual official high and low records may vary slightly from our data, if they occured in-between our weather recording intervals... More about our weather records

Advertising

St. Albert weather history for previous 24 hours

 ConditionsComfort  
Time TempWeatherWind HumidityBarometerVisibility
2:00 AM
Sep 22
59 °FClear.7 mph63%29.73 "Hg9 mi
1:00 AM61 °FClear.8 mph59%29.73 "Hg9 mi
12:00 AM64 °FClear.12 mph52%29.74 "Hg9 mi
11:00 PM
Sep 21
66 °FClear.14 mph49%29.75 "Hg9 mi
10:00 PM70 °FClear.15 mph46%29.78 "Hg9 mi
9:00 PM72 °FClear.16 mph44%29.80 "Hg9 mi
8:00 PM75 °FSunny.12 mph39%29.82 "Hg9 mi
7:00 PM77 °FSunny.8 mph34%29.83 "Hg9 mi
6:00 PM79 °FSunny.15 mph30%29.84 "Hg9 mi
5:00 PM79 °FSunny.14 mph30%29.86 "Hg9 mi
4:00 PM82 °FSunny.21 mph28%29.87 "Hg9 mi
3:00 PM82 °FSunny.17 mph28%29.90 "Hg9 mi
2:00 PM81 °FSunny.17 mph28%29.93 "Hg9 mi
1:00 PM79 °FSunny.20 mph30%29.97 "Hg9 mi
12:00 PM75 °FSunny.15 mph39%30.00 "Hg9 mi
11:00 AM70 °FSunny.13 mph46%30.03 "Hg9 mi
10:00 AM63 °FSunny.3 mph56%30.05 "Hg9 mi
9:00 AM54 °FSunny.3 mph72%30.08 "Hg9 mi
8:00 AM48 °FClear.No wind82%30.09 "Hg9 mi
7:00 AM48 °FClear.3 mph82%30.09 "Hg9 mi
6:00 AM50 °FClear.3 mph76%30.09 "Hg9 mi
5:00 AM50 °FClear.2 mph76%30.10 "Hg9 mi
4:00 AM50 °FClear.5 mph76%30.11 "Hg9 mi
3:00 AM52 °FClear.5 mph72%30.10 "Hg9 mi
2:00 AM54 °FClear.5 mph67%30.11 "Hg9 mi
Weather by CustomWeather, © 2014

See weather overviewHow to use our weather pages